When you browse on this site, cookies collect data to enhance your experience and personalize the content and advertising you see.
Visit our Privacy Policy to learn more. By continuing to use the site, you agree to this use of cookies and data.
  • In Denmark
  • List of Countries
  • For 7 days
  • Water Temperature
  • Weather Map
  • Weather Widgets
  • user-avatar
    Login

    Hourly Weather Lincoln

    Today, 24 August, Saturday

    Time Temperature Precipitation Wind Pressure Humidity
    00:00 +18°C° 0 mm 3 mps 761 mmHg 82%
    01:00 +18°C° 0 mm 3 mps 760 mmHg 82%
    02:00 +17°C° 0 mm 2 mps 760 mmHg 83%
    03:00 +17°C° 0 mm 2 mps 760 mmHg 84%
    04:00 +17°C° 0 mm 2 mps 760 mmHg 83%
    05:00 +17°C° 0 mm 2 mps 760 mmHg 82%
    06:00 +17°C° 0 mm 2 mps 760 mmHg 81%
    07:00 +18°C° 0 mm 2 mps 760 mmHg 73%
    08:00 +20°C° 0 mm 2 mps 760 mmHg 65%
    09:00 +22°C° 0 mm 3 mps 760 mmHg 57%
    10:00 +24°C° 0 mm 3 mps 760 mmHg 53%
    11:00 +25°C° 0 mm 3 mps 760 mmHg 48%
    12:00 +26°C° 0 mm 4 mps 759 mmHg 44%
    13:00 +27°C° 0 mm 4 mps 759 mmHg 43%
    14:00 +27°C° 0 mm 4 mps 759 mmHg 43%
    15:00 +28°C° 0 mm 4 mps 759 mmHg 42%
    16:00 +27°C° 0 mm 3 mps 758 mmHg 46%
    17:00 +26°C° 0 mm 2 mps 758 mmHg 51%
    18:00 +26°C° 0 mm 2 mps 758 mmHg 55%
    19:00 +24°C° 0 mm 2 mps 758 mmHg 59%
    20:00 +23°C° 0 mm 2 mps 758 mmHg 64%
    21:00 +20°C° 0 mm 2 mps 758 mmHg 68%
    22:00 +20°C° 0 mm 2 mps 758 mmHg 70%
    23:00 +19°C° 0 mm 2 mps 758 mmHg 71%

    Tomorrow, 25 August, Sunday

    Time Temperature Precipitation Wind Pressure Humidity
    00:00 +19°C° 0 mm 2 mps 758 mmHg 73%
    01:00 +18°C° 0 mm 2 mps 758 mmHg 73%
    02:00 +18°C° 0 mm 2 mps 758 mmHg 74%
    03:00 +17°C° 0 mm 2 mps 758 mmHg 75%
    04:00 +17°C° 0 mm 2 mps 758 mmHg 74%
    05:00 +18°C° 0 mm 1 mps 758 mmHg 74%
    06:00 +19°C° 0 mm 1 mps 758 mmHg 74%
    07:00 +20°C° 0 mm 1 mps 758 mmHg 68%
    08:00 +21°C° 0 mm 2 mps 758 mmHg 61%
    09:00 +24°C° 0 mm 2 mps 759 mmHg 55%
    10:00 +26°C° 0 mm 2 mps 759 mmHg 51%
    11:00 +27°C° 0 mm 2 mps 759 mmHg 48%
    12:00 +28°C° 0 mm 2 mps 758 mmHg 44%
    13:00 +29°C° 0 mm 3 mps 758 mmHg 43%
    14:00 +29°C° 0 mm 3 mps 758 mmHg 41%
    15:00 +30°C° 0 mm 3 mps 758 mmHg 40%
    16:00 +29°C° 0 mm 3 mps 758 mmHg 45%
    17:00 +27°C° 0 mm 3 mps 758 mmHg 51%
    18:00 +26°C° 0 mm 4 mps 758 mmHg 57%
    19:00 +25°C° 0 mm 4 mps 758 mmHg 61%
    20:00 +22°C° 0 mm 4 mps 759 mmHg 65%
    21:00 +21°C° 0 mm 3 mps 759 mmHg 68%
    22:00 +21°C° 0 mm 3 mps 759 mmHg 70%
    23:00 +20°C° 0 mm 3 mps 759 mmHg 72%

    Day after tomorrow, 26 August, Monday

    Time Temperature Precipitation Wind Pressure Humidity
    00:00 +20°C° 0 mm 3 mps 759 mmHg 73%
    01:00 +19°C° 0 mm 2 mps 759 mmHg 74%
    02:00 +19°C° 0 mm 2 mps 759 mmHg 75%
    03:00 +18°C° 0 mm 2 mps 759 mmHg 76%
    04:00 +18°C° 0 mm 2 mps 759 mmHg 77%
    05:00 +18°C° 0 mm 2 mps 759 mmHg 77%
    06:00 +18°C° 0 mm 2 mps 758 mmHg 78%
    07:00 +20°C° 0 mm 2 mps 759 mmHg 71%
    08:00 +23°C° 0 mm 2 mps 759 mmHg 64%
    09:00 +25°C° 0 mm 2 mps 759 mmHg 57%
    10:00 +26°C° 0 mm 3 mps 758 mmHg 52%
    11:00 +28°C° 0 mm 3 mps 758 mmHg 48%
    12:00 +29°C° 0 mm 3 mps 758 mmHg 43%
    13:00 +30°C° 0 mm 3 mps 758 mmHg 42%
    14:00 +30°C° 0 mm 3 mps 758 mmHg 42%
    15:00 +31°C° 0 mm 3 mps 757 mmHg 41%
    16:00 +30°C° 0 mm 2 mps 757 mmHg 46%
    17:00 +29°C° 0 mm 2 mps 757 mmHg 50%
    18:00 +28°C° 0 mm 1 mps 757 mmHg 54%
    19:00 +27°C° 0 mm 2 mps 757 mmHg 58%
    20:00 +25°C° 0 mm 2 mps 757 mmHg 62%
    21:00 +24°C° 0 mm 2 mps 757 mmHg 66%
    22:00 +23°C° 0 mm 2 mps 757 mmHg 67%
    23:00 +22°C° 0 mm 3 mps 757 mmHg 69%

    27 August, Tuesday

    Time Temperature Precipitation Wind Pressure Humidity
    00:00 +21°C° 0 mm 3 mps 757 mmHg 71%
    01:00 +21°C° 0 mm 3 mps 757 mmHg 72%
    02:00 +20°C° 0 mm 3 mps 756 mmHg 72%
    03:00 +20°C° 0 mm 3 mps 756 mmHg 73%
    04:00 +20°C° 0 mm 2 mps 756 mmHg 73%
    05:00 +20°C° 0 mm 2 mps 756 mmHg 73%
    06:00 +20°C° 0 mm 2 mps 756 mmHg 73%
    07:00 +21°C° 0 mm 2 mps 756 mmHg 68%
    08:00 +23°C° 0 mm 2 mps 756 mmHg 62%
    09:00 +25°C° 0 mm 2 mps 756 mmHg 57%
    10:00 +26°C° 0 mm 2 mps 756 mmHg 53%
    11:00 +27°C° 0 mm 2 mps 756 mmHg 50%
    12:00 +28°C° 0 mm 2 mps 756 mmHg 46%
    13:00 +29°C° 0 mm 2 mps 755 mmHg 46%
    14:00 +29°C° 0 mm 2 mps 755 mmHg 46%
    15:00 +29°C° 0 mm 2 mps 755 mmHg 46%
    16:00 +27°C° 0.2 mm 3 mps 755 mmHg 54%
    17:00 +26°C° 0.2 mm 3 mps 755 mmHg 62%
    18:00 +24°C° 0.2 mm 3 mps 755 mmHg 69%
    19:00 +22°C° 0.2 mm 3 mps 755 mmHg 71%
    20:00 +21°C° 0.2 mm 3 mps 755 mmHg 73%
    21:00 +21°C° 0.2 mm 2 mps 756 mmHg 75%
    22:00 +20°C° 0 mm 2 mps 756 mmHg 73%
    23:00 +19°C° 0 mm 2 mps 756 mmHg 70%

    28 August, Wednesday

    Time Temperature Precipitation Wind Pressure Humidity
    00:00 +19°C° 0 mm 2 mps 756 mmHg 67%
    01:00 +19°C° 0 mm 2 mps 756 mmHg 68%
    02:00 +18°C° 0 mm 2 mps 755 mmHg 68%
    03:00 +19°C° 0 mm 1 mps 755 mmHg 69%
    04:00 +19°C° 0 mm 1 mps 755 mmHg 69%
    05:00 +19°C° 0 mm 1 mps 755 mmHg 70%
    06:00 +19°C° 0 mm 1 mps 756 mmHg 71%
    07:00 +19°C° 0 mm 1 mps 756 mmHg 72%
    08:00 +19°C° 0 mm 1 mps 756 mmHg 72%
    09:00 +19°C° 0 mm 1 mps 756 mmHg 73%
    10:00 +20°C° 0 mm 2 mps 756 mmHg 66%
    11:00 +21°C° 0 mm 2 mps 755 mmHg 60%
    12:00 +22°C° 0 mm 3 mps 755 mmHg 53%
    13:00 +23°C° 0 mm 4 mps 755 mmHg 53%
    14:00 +23°C° 0 mm 4 mps 755 mmHg 53%
    15:00 +25°C° 0 mm 4 mps 755 mmHg 53%
    16:00 +22°C° 0.4 mm 4 mps 755 mmHg 62%
    17:00 +21°C° 0.4 mm 3 mps 755 mmHg 71%
    18:00 +19°C° 0.4 mm 3 mps 755 mmHg 80%
    19:00 +19°C° 0 mm 3 mps 756 mmHg 83%
    20:00 +18°C° 0 mm 3 mps 756 mmHg 85%
    21:00 +17°C° 0 mm 3 mps 756 mmHg 87%
    22:00 +17°C° 0 mm 2 mps 756 mmHg 88%
    23:00 +16°C° 0 mm 2 mps 757 mmHg 88%

    29 August, Thursday

    Time Temperature Precipitation Wind Pressure Humidity
    00:00 +16°C° 0 mm 2 mps 757 mmHg 88%
    01:00 +16°C° 0 mm 2 mps 757 mmHg 87%
    02:00 +15°C° 0 mm 2 mps 757 mmHg 86%
    03:00 +15°C° 0 mm 1 mps 757 mmHg 84%
    04:00 +15°C° 0 mm 1 mps 757 mmHg 84%
    05:00 +15°C° 0 mm 1 mps 757 mmHg 84%
    06:00 +14°C° 0 mm 1 mps 757 mmHg 84%
    07:00 +16°C° 0 mm 1 mps 757 mmHg 78%
    08:00 +18°C° 0 mm 1 mps 757 mmHg 71%
    09:00 +18°C° 0 mm 2 mps 757 mmHg 65%
    10:00 +19°C° 0 mm 2 mps 757 mmHg 63%
    11:00 +20°C° 0 mm 3 mps 757 mmHg 60%
    12:00 +21°C° 0 mm 4 mps 757 mmHg 57%
    13:00 +21°C° 0 mm 4 mps 757 mmHg 55%
    14:00 +21°C° 0 mm 4 mps 756 mmHg 52%
    15:00 +21°C° 0 mm 4 mps 756 mmHg 49%
    16:00 +21°C° 0 mm 3 mps 756 mmHg 51%
    17:00 +20°C° 0 mm 3 mps 756 mmHg 53%
    18:00 +19°C° 0 mm 2 mps 756 mmHg 56%
    19:00 +18°C° 0 mm 2 mps 756 mmHg 59%
    20:00 +17°C° 0 mm 2 mps 757 mmHg 62%
    21:00 +16°C° 0 mm 2 mps 757 mmHg 66%
    22:00 +15°C° 0 mm 2 mps 757 mmHg 70%
    23:00 +15°C° 0 mm 2 mps 756 mmHg 75%
    Show more